TimeCDT,TemperatureF,Dew PointF,Humidity,Sea Level PressureIn,VisibilityMPH,Wind Direction,Wind SpeedMPH,Gust SpeedMPH,PrecipitationIn,Events,Conditions,WindDirDegrees,DateUTC
12:15 AM,71.6,60.8,69,29.78,10.0,South,10.4,-,N/A,,Clear,180,2012-04-28 05:15:00
12:35 AM,71.6,60.8,69,29.79,10.0,South,8.1,-,N/A,,Clear,180,2012-04-28 05:35:00
12:55 AM,71.6,60.8,69,29.79,10.0,South,8.1,-,N/A,,Clear,170,2012-04-28 05:55:00
1:15 AM,71.6,60.8,69,29.79,10.0,South,9.2,-,N/A,,Clear,180,2012-04-28 06:15:00
1:35 AM,69.8,60.8,73,29.79,10.0,South,8.1,-,N/A,,Clear,180,2012-04-28 06:35:00
1:55 AM,69.8,60.8,73,29.79,10.0,South,5.8,-,N/A,,Clear,180,2012-04-28 06:55:00
2:15 AM,69.8,60.8,73,29.78,10.0,South,8.1,-,N/A,,Clear,170,2012-04-28 07:15:00
2:35 AM,69.8,60.8,73,29.78,10.0,South,6.9,-,N/A,,Clear,180,2012-04-28 07:35:00
3:15 AM,69.8,60.8,73,29.78,10.0,South,8.1,-,N/A,,Clear,180,2012-04-28 08:15:00
3:35 AM,69.8,60.8,73,29.78,10.0,South,6.9,-,N/A,,Clear,180,2012-04-28 08:35:00
3:55 AM,69.8,60.8,73,29.78,10.0,South,6.9,-,N/A,,Clear,180,2012-04-28 08:55:00
4:15 AM,68.0,60.8,78,29.78,10.0,South,8.1,-,N/A,,Clear,180,2012-04-28 09:15:00
4:35 AM,68.0,60.8,78,29.78,10.0,South,5.8,-,N/A,,Clear,180,2012-04-28 09:35:00
4:55 AM,66.2,60.8,83,29.78,10.0,South,6.9,-,N/A,,Clear,180,2012-04-28 09:55:00
5:15 AM,68.0,60.8,78,29.78,10.0,South,8.1,-,N/A,,Clear,180,2012-04-28 10:15:00
5:55 AM,68.0,60.8,78,29.78,10.0,South,5.8,-,N/A,,Clear,180,2012-04-28 10:55:00
6:15 AM,68.0,60.8,78,29.79,10.0,South,4.6,-,N/A,,Clear,180,2012-04-28 11:15:00
6:35 AM,66.2,60.8,83,29.81,10.0,South,3.5,-,N/A,,Clear,180,2012-04-28 11:35:00
6:55 AM,66.2,60.8,83,29.81,10.0,South,3.5,-,N/A,,Clear,190,2012-04-28 11:55:00
7:15 AM,66.2,62.6,88,29.82,10.0,South,4.6,-,N/A,,Clear,190,2012-04-28 12:15:00
7:35 AM,68.0,62.6,83,29.83,10.0,South,3.5,-,N/A,,Clear,190,2012-04-28 12:35:00
7:55 AM,69.8,62.6,78,29.84,10.0,South,5.8,-,N/A,,Clear,190,2012-04-28 12:55:00
8:35 AM,69.8,62.6,78,29.86,10.0,SSW,9.2,-,N/A,,Clear,210,2012-04-28 13:35:00
8:55 AM,71.6,62.6,73,29.86,10.0,SSW,9.2,16.1,N/A,,Mostly Cloudy,200,2012-04-28 13:55:00
9:15 AM,69.8,62.6,78,29.87,10.0,South,9.2,-,N/A,,Overcast,190,2012-04-28 14:15:00
9:35 AM,71.6,62.6,73,29.87,10.0,SSW,10.4,-,N/A,,Overcast,200,2012-04-28 14:35:00
9:55 AM,71.6,60.8,69,29.87,10.0,SSW,6.9,-,N/A,,Overcast,200,2012-04-28 14:55:00
10:15 AM,71.6,60.8,69,29.88,10.0,SSW,11.5,16.1,N/A,,Overcast,200,2012-04-28 15:15:00
10:35 AM,71.6,62.6,73,29.87,10.0,South,8.1,-,N/A,,Overcast,190,2012-04-28 15:35:00
10:55 AM,73.4,62.6,69,29.88,10.0,SSW,9.2,17.3,N/A,,Overcast,200,2012-04-28 15:55:00
11:15 AM,73.4,62.6,69,29.88,10.0,SSW,10.4,-,N/A,,Overcast,200,2012-04-28 16:15:00
11:35 AM,73.4,62.6,69,29.89,10.0,SSW,12.7,18.4,N/A,,Overcast,210,2012-04-28 16:35:00
11:55 AM,73.4,62.6,69,29.89,10.0,SSW,9.2,-,N/A,,Overcast,200,2012-04-28 16:55:00
12:15 PM,73.4,62.6,69,29.89,10.0,SSW,11.5,-,N/A,,Overcast,210,2012-04-28 17:15:00
12:35 PM,73.4,62.6,69,29.88,10.0,South,10.4,-,N/A,,Overcast,190,2012-04-28 17:35:00
12:55 PM,73.4,62.6,69,29.88,10.0,South,8.1,-,N/A,,Overcast,180,2012-04-28 17:55:00
1:15 PM,75.2,62.6,65,29.87,10.0,SSW,9.2,-,N/A,,Overcast,200,2012-04-28 18:15:00
1:35 PM,75.2,60.8,61,29.88,10.0,South,9.2,18.4,N/A,,Overcast,180,2012-04-28 18:35:00
1:55 PM,73.4,60.8,65,29.88,10.0,South,6.9,-,N/A,,Overcast,190,2012-04-28 18:55:00
2:15 PM,73.4,60.8,65,29.88,10.0,SSW,10.4,-,N/A,,Overcast,210,2012-04-28 19:15:00
2:35 PM,73.4,62.6,69,29.89,10.0,SSW,8.1,-,N/A,,Overcast,210,2012-04-28 19:35:00
2:55 PM,73.4,62.6,69,29.89,10.0,SSW,8.1,-,N/A,,Overcast,210,2012-04-28 19:55:00
3:15 PM,73.4,62.6,69,29.89,10.0,SW,5.8,-,N/A,,Overcast,220,2012-04-28 20:15:00
3:35 PM,71.6,62.6,73,29.89,10.0,SW,5.8,-,N/A,,Overcast,220,2012-04-28 20:35:00
3:55 PM,73.4,62.6,69,29.89,10.0,SSW,3.5,-,N/A,,Overcast,210,2012-04-28 20:55:00
4:15 PM,73.4,62.6,69,29.88,10.0,SSW,4.6,-,N/A,,Overcast,200,2012-04-28 21:15:00
4:35 PM,73.4,62.6,69,29.88,10.0,SSW,4.6,-,N/A,,Overcast,210,2012-04-28 21:35:00
4:55 PM,73.4,62.6,69,29.88,10.0,SSW,6.9,-,N/A,,Overcast,200,2012-04-28 21:55:00
5:15 PM,73.4,62.6,69,29.88,10.0,WSW,5.8,-,N/A,,Overcast,250,2012-04-28 22:15:00
5:35 PM,73.4,62.6,69,29.89,10.0,SSW,4.6,-,N/A,,Overcast,210,2012-04-28 22:35:00
5:55 PM,73.4,60.8,65,29.89,10.0,Calm,Calm,-,N/A,,Overcast,0,2012-04-28 22:55:00
6:15 PM,73.4,62.6,69,29.89,10.0,Calm,Calm,-,N/A,,Overcast,0,2012-04-28 23:15:00
6:35 PM,71.6,62.6,73,29.90,10.0,Calm,Calm,-,N/A,,Overcast,0,2012-04-28 23:35:00
6:55 PM,71.6,62.6,73,29.89,10.0,Calm,Calm,-,N/A,,Overcast,0,2012-04-28 23:55:00
7:15 PM,71.6,62.6,73,29.90,10.0,Calm,Calm,-,N/A,,Overcast,0,2012-04-29 00:15:00
7:35 PM,71.6,62.6,73,29.89,10.0,Calm,Calm,-,N/A,,Overcast,0,2012-04-29 00:35:00
7:55 PM,71.6,60.8,69,29.90,10.0,Calm,Calm,-,N/A,,Overcast,0,2012-04-29 00:55:00
8:15 PM,71.6,64.4,78,29.90,10.0,Calm,Calm,-,N/A,,Overcast,0,2012-04-29 01:15:00
8:35 PM,69.8,64.4,83,29.92,10.0,Calm,Calm,-,N/A,,Overcast,0,2012-04-29 01:35:00
8:55 PM,69.8,62.6,78,29.93,10.0,Calm,Calm,-,N/A,,Overcast,0,2012-04-29 01:55:00
9:15 PM,69.8,62.6,78,29.93,10.0,Calm,Calm,-,N/A,,Overcast,0,2012-04-29 02:15:00
9:35 PM,69.8,62.6,78,29.94,10.0,ESE,3.5,-,N/A,,Overcast,110,2012-04-29 02:35:00
9:55 PM,71.6,62.6,73,29.95,10.0,Calm,Calm,-,N/A,,Overcast,0,2012-04-29 02:55:00
10:15 PM,69.8,62.6,78,29.96,10.0,Calm,Calm,-,N/A,,Overcast,0,2012-04-29 03:15:00
10:35 PM,69.8,62.6,78,29.95,10.0,ESE,4.6,-,N/A,,Overcast,110,2012-04-29 03:35:00
10:55 PM,69.8,62.6,78,29.95,10.0,ESE,5.8,-,N/A,,Overcast,110,2012-04-29 03:55:00
11:15 PM,69.8,62.6,78,29.94,10.0,ESE,5.8,-,N/A,,Overcast,110,2012-04-29 04:15:00
11:35 PM,69.8,62.6,78,29.94,10.0,ESE,5.8,-,N/A,,Overcast,120,2012-04-29 04:35:00
11:55 PM,69.8,62.6,78,29.94,10.0,ESE,6.9,-,N/A,,Overcast,120,2012-04-29 04:55:00